| time (UTC) | temp F | wind direction | speed MPH | gust MPH | rain 1hr in | rain 24hr in | rain mn in | humidity % | barometer mb |
| 20260503030539 | 44 | 50 | 1.0 | 10.0 | 0.00 | 0.01 | 0.00 | 67 | 1013.7 |
| 20260503030050 | 44 | 327 | 4.0 | 10.0 | 0.00 | 0.01 | 0.00 | 67 | 1013.8 |
| 20260503025538 | 44 | 328 | 4.0 | 10.0 | 0.00 | 0.01 | 0.00 | 67 | 1013.9 |
| 20260503025038 | 44 | 315 | 3.0 | 10.0 | 0.00 | 0.01 | 0.00 | 67 | 1014.0 |
| 20260503024550 | 45 | 316 | 5.0 | 10.0 | 0.00 | 0.01 | 0.00 | 66 | 1014.0 |
| 20260503024041 | 45 | 295 | 4.0 | 8.0 | 0.00 | 0.01 | 0.00 | 67 | 1014.1 |
| 20260503023537 | 45 | 281 | 5.0 | 8.0 | 0.00 | 0.01 | 0.00 | 66 | 1014.3 |
| 20260503023047 | 45 | 300 | 2.0 | 9.0 | 0.00 | 0.01 | 0.00 | 66 | 1014.2 |
| 20260503022541 | 45 | 288 | 4.0 | 9.0 | 0.00 | 0.01 | 0.00 | 66 | 1014.4 |
| 20260503022038 | 45 | 308 | 3.0 | 8.0 | 0.00 | 0.01 | 0.00 | 66 | 1014.5 |
| 20260503021550 | 45 | 257 | 4.0 | 9.0 | 0.00 | 0.01 | 0.00 | 66 | 1014.5 |
| 20260503021041 | 45 | 263 | 5.0 | 9.0 | 0.00 | 0.01 | 0.00 | 66 | 1014.4 |
| 20260503020541 | 45 | 295 | 5.0 | 9.0 | 0.00 | 0.01 | 0.00 | 65 | 1014.3 |
| 20260503020059 | 44 | 267 | 4.0 | 8.0 | 0.00 | 0.01 | 0.00 | 66 | 1014.3 |
| 20260503015539 | 44 | 286 | 2.0 | 7.0 | 0.00 | 0.01 | 0.00 | 67 | 1014.3 |
| 20260503015039 | 44 | 281 | 3.0 | 7.0 | 0.00 | 0.01 | 0.00 | 67 | 1014.3 |
| 20260503014554 | 44 | 292 | 3.0 | 6.0 | 0.00 | 0.01 | 0.00 | 68 | 1014.3 |
| 20260503014038 | 44 | 319 | 3.0 | 8.0 | 0.00 | 0.01 | 0.00 | 68 | 1014.1 |
| 20260503013538 | 45 | 319 | 4.0 | 10.0 | 0.00 | 0.01 | 0.00 | 67 | 1014.0 |
| 20260503013049 | 45 | 317 | 5.0 | 10.0 | 0.00 | 0.01 | 0.00 | 67 | 1014.0 |
| 20260503012541 | 45 | 327 | 4.0 | 8.0 | 0.00 | 0.01 | 0.00 | 67 | 1014.0 |
| 20260503012042 | 45 | 335 | 4.0 | 10.0 | 0.00 | 0.01 | 0.00 | 65 | 1014.0 |
| 20260503011604 | 46 | 320 | 5.0 | 10.0 | 0.00 | 0.01 | 0.00 | 65 | 1013.9 |
| 20260503011038 | 46 | 315 | 6.0 | 11.0 | 0.00 | 0.01 | 0.00 | 64 | 1013.9 |
| 20260503010544 | 46 | 340 | 5.0 | 11.0 | 0.00 | 0.01 | 0.00 | 65 | 1013.9 |
| 20260503010051 | 46 | 304 | 7.0 | 12.0 | 0.00 | 0.01 | 0.00 | 65 | 1013.8 |
| 20260503005541 | 46 | 323 | 7.0 | 12.0 | 0.00 | 0.01 | 0.00 | 65 | 1013.7 |
| 20260503005037 | 46 | 332 | 6.0 | 12.0 | 0.00 | 0.01 | 0.00 | 65 | 1013.7 |
| 20260503004550 | 46 | 325 | 3.0 | 8.0 | 0.00 | 0.01 | 0.00 | 65 | 1013.6 |
| 20260503004038 | 47 | 302 | 5.0 | 11.0 | 0.00 | 0.01 | 0.00 | 64 | 1013.6 |
| 20260503003539 | 47 | 292 | 6.0 | 13.0 | 0.00 | 0.01 | 0.00 | 63 | 1013.6 |
| 20260503003050 | 47 | 319 | 7.0 | 14.0 | 0.00 | 0.01 | 0.00 | 63 | 1013.4 |
| 20260503002541 | 47 | 317 | 10.0 | 14.0 | 0.00 | 0.01 | 0.00 | 63 | 1013.4 |
| 20260503002041 | 47 | 313 | 6.0 | 12.0 | 0.00 | 0.01 | 0.00 | 64 | 1013.4 |
| 20260503001553 | 48 | 302 | 8.0 | 12.0 | 0.00 | 0.01 | 0.00 | 62 | 1013.4 |
| 20260503001042 | 48 | 312 | 8.0 | 16.0 | 0.00 | 0.01 | 0.00 | 62 | 1013.3 |
| 20260503000541 | 48 | 294 | 10.0 | 16.0 | 0.00 | 0.01 | 0.00 | 61 | 1013.4 |
| 20260502235538 | 49 | 312 | 11.0 | 19.0 | 0.00 | 0.01 | 0.00 | 61 | 1013.2 |
| 20260502235038 | 49 | 317 | 12.0 | 19.0 | 0.00 | 0.01 | 0.00 | 58 | 1013.1 |
| 20260502234550 | 50 | 297 | 11.0 | 16.0 | 0.00 | 0.01 | 0.00 | 57 | 1013.0 |
| 20260502234042 | 50 | 321 | 8.0 | 16.0 | 0.00 | 0.01 | 0.00 | 57 | 1013.0 |
| 20260502233540 | 50 | 302 | 10.0 | 16.0 | 0.00 | 0.01 | 0.00 | 55 | 1012.9 |
| 20260502233046 | 50 | 306 | 11.0 | 16.0 | 0.00 | 0.01 | 0.00 | 55 | 1012.8 |
| 20260502232540 | 50 | 333 | 10.0 | 16.0 | 0.00 | 0.01 | 0.00 | 54 | 1012.8 |
| 20260502232041 | 50 | 302 | 8.0 | 14.0 | 0.00 | 0.01 | 0.00 | 56 | 1012.7 |
| 20260502231612 | 50 | 308 | 6.0 | 12.0 | 0.00 | 0.01 | 0.00 | 55 | 1012.7 |
| 20260502231038 | 50 | 330 | 7.0 | 12.0 | 0.00 | 0.01 | 0.00 | 52 | 1012.6 |
| 20260502230538 | 51 | 319 | 9.0 | 12.0 | 0.00 | 0.01 | 0.00 | 54 | 1012.5 |
| 20260502230052 | 51 | 308 | 8.0 | 15.0 | 0.00 | 0.01 | 0.00 | 55 | 1012.5 |
| 20260502225541 | 51 | 311 | 9.0 | 15.0 | 0.00 | 0.01 | 0.00 | 52 | 1012.6 |
| 20260502225039 | 51 | 311 | 9.0 | 12.0 | 0.00 | 0.01 | 0.00 | 53 | 1012.5 |
| 20260502224558 | 52 | 311 | 6.0 | 11.0 | 0.00 | 0.01 | 0.00 | 53 | 1012.5 |
| 20260502224038 | 52 | 307 | 4.0 | 13.0 | 0.00 | 0.01 | 0.00 | 52 | 1012.4 |
| 20260502223538 | 52 | 308 | 8.0 | 13.0 | 0.00 | 0.01 | 0.00 | 49 | 1012.4 |
| 20260502223051 | 52 | 292 | 8.0 | 13.0 | 0.00 | 0.01 | 0.00 | 49 | 1012.4 |
| 20260502222538 | 52 | 295 | 8.0 | 13.0 | 0.00 | 0.01 | 0.00 | 51 | 1012.3 |
| 20260502222041 | 52 | 302 | 6.0 | 14.0 | 0.00 | 0.01 | 0.00 | 52 | 1012.4 |
| 20260502221554 | 52 | 300 | 9.0 | 14.0 | 0.00 | 0.01 | 0.00 | 50 | 1012.4 |
| 20260502221041 | 52 | 275 | 8.0 | 13.0 | 0.00 | 0.01 | 0.00 | 54 | 1012.2 |
| 20260502220541 | 52 | 321 | 7.0 | 14.0 | 0.00 | 0.01 | 0.00 | 53 | 1012.4 |
| 20260502220050 | 52 | 281 | 11.0 | 19.0 | 0.00 | 0.01 | 0.00 | 51 | 1012.3 |
| 20260502215538 | 52 | 297 | 6.0 | 19.0 | 0.00 | 0.01 | 0.00 | 53 | 1012.4 |
| 20260502215038 | 52 | 304 | 9.0 | 19.0 | 0.00 | 0.01 | 0.00 | 49 | 1012.4 |
| 20260502214550 | 52 | 291 | 6.0 | 14.0 | 0.00 | 0.01 | 0.00 | 49 | 1012.4 |
| 20260502214040 | 53 | 285 | 6.0 | 12.0 | 0.00 | 0.01 | 0.00 | 52 | 1012.5 |
| 20260502213537 | 53 | 306 | 6.0 | 13.0 | 0.00 | 0.01 | 0.00 | 49 | 1012.4 |
| 20260502213051 | 53 | 267 | 5.0 | 14.0 | 0.00 | 0.01 | 0.00 | 49 | 1012.4 |
| 20260502212537 | 53 | 290 | 9.0 | 17.0 | 0.00 | 0.01 | 0.00 | 50 | 1012.3 |
| 20260502212040 | 52 | 282 | 9.0 | 17.0 | 0.00 | 0.01 | 0.00 | 52 | 1012.3 |
| 20260502211551 | 52 | 281 | 11.0 | 17.0 | 0.00 | 0.01 | 0.00 | 50 | 1012.3 |
| 20260502211038 | 53 | 267 | 5.0 | 16.0 | 0.00 | 0.01 | 0.00 | 49 | 1012.2 |
| 20260502210538 | 53 | 261 | 8.0 | 16.0 | 0.00 | 0.01 | 0.00 | 50 | 1012.1 |
| 20260502210051 | 53 | 326 | 9.0 | 13.0 | 0.00 | 0.01 | 0.00 | 52 | 1012.0 |
| 20260502205541 | 53 | 311 | 7.0 | 16.0 | 0.00 | 0.01 | 0.00 | 51 | 1012.0 |
| 20260502205040 | 53 | 285 | 11.0 | 16.0 | 0.00 | 0.01 | 0.00 | 49 | 1012.0 |
| 20260502204551 | 53 | 324 | 5.0 | 15.0 | 0.00 | 0.01 | 0.00 | 51 | 1012.0 |
| 20260502204038 | 53 | 288 | 9.0 | 15.0 | 0.00 | 0.01 | 0.00 | 53 | 1011.9 |
| 20260502203538 | 53 | 281 | 7.0 | 16.0 | 0.00 | 0.01 | 0.00 | 52 | 1012.1 |
| 20260502203048 | 53 | 269 | 11.0 | 16.0 | 0.00 | 0.01 | 0.00 | 49 | 1012.1 |
| 20260502202540 | 54 | 296 | 8.0 | 14.0 | 0.00 | 0.01 | 0.00 | 52 | 1012.0 |
| 20260502202037 | 54 | 320 | 5.0 | 13.0 | 0.00 | 0.01 | 0.00 | 52 | 1011.9 |
| 20260502201545 | 53 | 301 | 9.0 | 18.0 | 0.00 | 0.01 | 0.00 | 51 | 1012.0 |
| 20260502201042 | 53 | 338 | 9.0 | 18.0 | 0.00 | 0.01 | 0.00 | 54 | 1012.0 |
| 20260502200543 | 53 | 344 | 14.0 | 17.0 | 0.00 | 0.01 | 0.00 | 52 | 1011.9 |
| 20260502200045 | 53 | 333 | 8.0 | 12.0 | 0.00 | 0.01 | 0.00 | 52 | 1012.0 |
| 20260502195541 | 53 | 313 | 6.0 | 16.0 | 0.00 | 0.01 | 0.00 | 51 | 1012.2 |
| 20260502195040 | 52 | 326 | 9.0 | 16.0 | 0.00 | 0.01 | 0.00 | 50 | 1012.4 |
| 20260502194559 | 53 | 292 | 11.0 | 16.0 | 0.00 | 0.01 | 0.00 | 50 | 1012.4 |
| 20260502194042 | 53 | 302 | 8.0 | 16.0 | 0.00 | 0.01 | 0.00 | 50 | 1012.4 |
| 20260502193540 | 54 | 340 | 11.0 | 16.0 | 0.00 | 0.01 | 0.00 | 52 | 1012.4 |
| 20260502193108 | 54 | 325 | 5.0 | 14.0 | 0.00 | 0.01 | 0.00 | 51 | 1012.7 |
| 20260502192538 | 53 | 298 | 9.0 | 14.0 | 0.00 | 0.01 | 0.00 | 47 | 1012.6 |
| 20260502192040 | 54 | 340 | 6.0 | 13.0 | 0.00 | 0.01 | 0.00 | 48 | 1012.6 |
| 20260502191559 | 54 | 338 | 2.0 | 13.0 | 0.00 | 0.01 | 0.00 | 48 | 1012.7 |
| 20260502191038 | 54 | 350 | 7.0 | 13.0 | 0.00 | 0.01 | 0.00 | 51 | 1012.8 |
| 20260502190541 | 54 | 270 | 5.0 | 12.0 | 0.00 | 0.01 | 0.00 | 51 | 1012.9 |
| 20260502190049 | 53 | 317 | 8.0 | 12.0 | 0.00 | 0.01 | 0.00 | 53 | 1013.0 |
| 20260502185541 | 53 | 330 | 5.0 | 12.0 | 0.00 | 0.01 | 0.00 | 52 | 1013.0 |
| 20260502185038 | 53 | 317 | 8.0 | 14.0 | 0.00 | 0.01 | 0.00 | 53 | 1013.1 |
| 20260502184559 | 53 | 297 | 9.0 | 14.0 | 0.00 | 0.01 | 0.00 | 50 | 1013.1 |
| 20260502184040 | 53 | 279 | 5.0 | 12.0 | 0.00 | 0.01 | 0.00 | 49 | 1013.2 |
| 20260502183540 | 52 | 256 | 8.0 | 13.0 | 0.00 | 0.01 | 0.00 | 51 | 1013.3 |
| 20260502183052 | 52 | 274 | 7.0 | 13.0 | 0.00 | 0.01 | 0.00 | 51 | 1013.3 |
| 20260502182543 | 52 | 280 | 8.0 | 13.0 | 0.00 | 0.01 | 0.00 | 48 | 1013.5 |
| 20260502182040 | 53 | 280 | 9.0 | 14.0 | 0.00 | 0.01 | 0.00 | 51 | 1013.4 |
| 20260502181553 | 53 | 268 | 9.0 | 14.0 | 0.00 | 0.01 | 0.00 | 47 | 1013.4 |
| 20260502181041 | 54 | 283 | 6.0 | 15.0 | 0.00 | 0.01 | 0.00 | 50 | 1013.4 |
| 20260502180540 | 53 | 298 | 10.0 | 15.0 | 0.00 | 0.01 | 0.00 | 49 | 1013.5 |
| 20260502164041 | 53 | 360 | 7.0 | 15.0 | 0.00 | 0.01 | 0.00 | 48 | 1013.5 |
| 20260502163537 | 54 | 262 | 5.0 | 12.0 | 0.00 | 0.01 | 0.00 | 49 | 1013.6 |
| 20260502163051 | 53 | 360 | 2.0 | 12.0 | 0.00 | 0.01 | 0.00 | 51 | 1013.6 |
| 20260502162543 | 52 | 298 | 2.0 | 12.0 | 0.00 | 0.01 | 0.00 | 49 | 1013.8 |
| 20260502162041 | 52 | 309 | 6.0 | 12.0 | 0.00 | 0.01 | 0.00 | 47 | 1013.8 |
| 20260502161611 | 53 | 81 | 3.0 | 13.0 | 0.00 | 0.01 | 0.00 | 47 | 1013.8 |
| 20260502161041 | 53 | 9 | 4.0 | 14.0 | 0.00 | 0.01 | 0.00 | 56 | 1013.8 |
| 20260502160541 | 52 | 313 | 9.0 | 14.0 | 0.00 | 0.01 | 0.00 | 57 | 1014.0 |
| 20260502160116 | 51 | 313 | 7.0 | 12.0 | 0.00 | 0.01 | 0.00 | 52 | 1014.0 |
| 20260502152042 | 52 | 261 | 10.0 | 16.0 | 0.00 | 0.01 | 0.00 | 50 | 1014.0 |
| 20260502151552 | 52 | 296 | 8.0 | 13.0 | 0.00 | 0.01 | 0.00 | 52 | 1013.9 |
| 20260502151037 | 52 | 281 | 7.0 | 12.0 | 0.00 | 0.01 | 0.00 | 51 | 1014.0 |
| 20260502150541 | 51 | 339 | 4.0 | 15.0 | 0.00 | 0.01 | 0.00 | 55 | 1014.1 |
| 20260502130541 | 47 | 320 | 12.0 | 16.0 | 0.00 | 0.01 | 0.00 | 68 | 1014.2 |
| 20260502130114 | 47 | 288 | 11.0 | 16.0 | 0.00 | 0.01 | 0.00 | 69 | 1014.1 |
| 20260502123541 | 45 | 303 | 10.0 | 14.0 | 0.00 | 0.01 | 0.00 | 71 | 1014.2 |
| 20260502123120 | 45 | 302 | 8.0 | 15.0 | 0.00 | 0.01 | 0.00 | 72 | 1014.2 |
| 20260502122540 | 45 | 316 | 10.0 | 16.0 | 0.00 | 0.01 | 0.00 | 71 | 1014.0 |
| 20260502122040 | 44 | 309 | 13.0 | 16.0 | 0.00 | 0.01 | 0.00 | 72 | 1014.1 |
| 20260502121551 | 44 | 295 | 11.0 | 16.0 | 0.00 | 0.01 | 0.00 | 72 | 1014.0 |
| 20260502121038 | 44 | 293 | 9.0 | 16.0 | 0.00 | 0.01 | 0.00 | 75 | 1014.1 |
| 20260502120539 | 44 | 300 | 12.0 | 16.0 | 0.00 | 0.01 | 0.00 | 74 | 1014.2 |
| 20260502115541 | 43 | 292 | 11.0 | 15.0 | 0.00 | 0.01 | 0.00 | 75 | 1014.1 |
| 20260502115041 | 43 | 295 | 8.0 | 14.0 | 0.00 | 0.01 | 0.00 | 76 | 1014.1 |
| 20260502114557 | 43 | 283 | 9.0 | 14.0 | 0.00 | 0.01 | 0.00 | 76 | 1014.0 |
| 20260502114042 | 43 | 306 | 8.0 | 14.0 | 0.00 | 0.01 | 0.00 | 77 | 1014.1 |
| 20260502113542 | 42 | 296 | 9.0 | 16.0 | 0.00 | 0.01 | 0.00 | 77 | 1014.1 |
| 20260502113046 | 42 | 281 | 10.0 | 16.0 | 0.00 | 0.01 | 0.00 | 77 | 1013.9 |
| 20260502112540 | 42 | 290 | 8.0 | 13.0 | 0.00 | 0.01 | 0.00 | 77 | 1014.0 |
| 20260502112040 | 42 | 281 | 9.0 | 13.0 | 0.00 | 0.01 | 0.00 | 77 | 1014.0 |
| 20260502111545 | 42 | 301 | 9.0 | 15.0 | 0.00 | 0.01 | 0.00 | 78 | 1013.9 |
| 20260502111044 | 41 | 282 | 9.0 | 15.0 | 0.00 | 0.01 | 0.00 | 78 | 1013.9 |
| 20260502110540 | 41 | 302 | 8.0 | 13.0 | 0.00 | 0.01 | 0.00 | 78 | 1013.9 |
| 20260502110048 | 41 | 292 | 7.0 | 13.0 | 0.00 | 0.01 | 0.00 | 79 | 1013.9 |
| 20260502105540 | 41 | 289 | 10.0 | 14.0 | 0.00 | 0.01 | 0.00 | 79 | 1014.0 |
| 20260502105036 | 41 | 294 | 8.0 | 14.0 | 0.00 | 0.01 | 0.00 | 79 | 1014.1 |
| 20260502104550 | 41 | 298 | 9.0 | 14.0 | 0.00 | 0.01 | 0.00 | 78 | 1014.1 |
| 20260502104041 | 41 | 288 | 7.0 | 13.0 | 0.00 | 0.01 | 0.00 | 78 | 1014.2 |
| 20260502103541 | 41 | 300 | 8.0 | 15.0 | 0.00 | 0.01 | 0.00 | 78 | 1014.2 |
| 20260502103053 | 41 | 298 | 11.0 | 15.0 | 0.00 | 0.01 | 0.00 | 78 | 1014.0 |
| 20260502102544 | 41 | 284 | 10.0 | 15.0 | 0.00 | 0.01 | 0.00 | 79 | 1014.0 |
| 20260502102041 | 42 | 297 | 9.0 | 14.0 | 0.00 | 0.01 | 0.00 | 79 | 1014.0 |
| 20260502101554 | 42 | 272 | 9.0 | 14.0 | 0.00 | 0.01 | 0.00 | 79 | 1014.0 |
| 20260502101043 | 41 | 271 | 9.0 | 12.0 | 0.00 | 0.01 | 0.00 | 79 | 1013.9 |
| 20260502100540 | 42 | 304 | 7.0 | 11.0 | 0.00 | 0.01 | 0.00 | 79 | 1014.0 |
| 20260502091040 | 44 | 265 | 4.0 | 12.0 | 0.00 | 0.01 | 0.00 | 78 | 1013.6 |
| 20260502090540 | 44 | 286 | 6.0 | 12.0 | 0.00 | 0.01 | 0.00 | 77 | 1013.6 |
| 20260502071040 | 43 | 314 | 0.0 | 5.0 | 0.00 | 0.01 | 0.00 | 81 | 1012.9 |
| 20260502070543 | 44 | 0 | 1.0 | 5.0 | 0.00 | 0.01 | 0.00 | 80 | 1013.0 |
| 20260502070052 | 44 | 315 | 1.0 | 4.0 | 0.00 | 0.01 | 0.00 | 81 | 1012.9 |
| 20260502065540 | 44 | 322 | 1.0 | 4.0 | 0.00 | 0.01 | 0.00 | 81 | 1012.9 |
| 20260502065037 | 44 | 326 | 0.0 | 2.0 | 0.00 | 0.01 | 0.00 | 81 | 1012.7 |
| 20260502064556 | 44 | 0 | 0.0 | 4.0 | 0.00 | 0.01 | 0.00 | 80 | 1012.6 |
| 20260502064040 | 45 | 0 | 0.0 | 5.0 | 0.00 | 0.01 | 0.00 | 80 | 1012.8 |
| 20260502063537 | 45 | 326 | 2.0 | 5.0 | 0.00 | 0.01 | 0.00 | 80 | 1012.6 |
| 20260502063101 | 46 | 323 | 2.0 | 5.0 | 0.00 | 0.01 | 0.00 | 79 | 1012.6 |
| 20260502062540 | 47 | 305 | 2.0 | 5.0 | 0.00 | 0.01 | 0.00 | 75 | 1012.5 |
| 20260502062037 | 47 | 0 | 1.0 | 8.0 | 0.00 | 0.01 | 0.00 | 75 | 1012.7 |
| 20260502061551 | 47 | 304 | 1.0 | 9.0 | 0.00 | 0.01 | 0.00 | 74 | 1012.7 |
| 20260502061039 | 47 | 315 | 3.0 | 9.0 | 0.00 | 0.01 | 0.00 | 74 | 1012.9 |
| 20260502060537 | 47 | 243 | 2.0 | 9.0 | 0.00 | 0.01 | 0.00 | 74 | 1012.9 |
| 20260502060047 | 48 | 0 | 0.0 | 6.0 | 0.00 | 0.01 | 0.00 | 75 | 1012.9 |
| 20260502055541 | 48 | 0 | 0.0 | 6.0 | 0.00 | 0.01 | 0.00 | 75 | 1012.9 |
| 20260502055040 | 48 | 211 | 1.0 | 9.0 | 0.00 | 0.01 | 0.00 | 74 | 1012.9 |
| 20260502054552 | 49 | 242 | 2.0 | 9.0 | 0.00 | 0.01 | 0.00 | 74 | 1012.8 |
| 20260502054040 | 49 | 262 | 3.0 | 9.0 | 0.00 | 0.01 | 0.00 | 75 | 1012.8 |
| 20260502053540 | 49 | 269 | 2.0 | 8.0 | 0.00 | 0.01 | 0.00 | 76 | 1012.9 |
| 20260502053056 | 49 | 248 | 2.0 | 9.0 | 0.00 | 0.01 | 0.00 | 76 | 1013.0 |
| 20260502052540 | 49 | 261 | 2.0 | 9.0 | 0.00 | 0.01 | 0.00 | 77 | 1012.9 |
| 20260502052041 | 49 | 270 | 4.0 | 9.0 | 0.00 | 0.01 | 0.00 | 77 | 1012.9 |
| 20260502051552 | 49 | 246 | 1.0 | 10.0 | 0.00 | 0.01 | 0.00 | 77 | 1013.0 |
| 20260502051040 | 49 | 284 | 2.0 | 11.0 | 0.00 | 0.01 | 0.00 | 77 | 1013.0 |
| 20260502050537 | 49 | 268 | 6.0 | 11.0 | 0.00 | 0.01 | 0.00 | 77 | 1013.0 |
| 20260502050051 | 49 | 252 | 6.0 | 12.0 | 0.00 | 0.01 | 0.00 | 78 | 1012.9 |
| 20260502045541 | 49 | 256 | 6.0 | 12.0 | 0.00 | 0.01 | 0.00 | 78 | 1012.9 |
| 20260502045041 | 49 | 273 | 4.0 | 14.0 | 0.00 | 0.01 | 0.00 | 78 | 1013.0 |
| 20260502044550 | 49 | 305 | 4.0 | 14.0 | 0.00 | 0.01 | 0.00 | 78 | 1012.9 |
| 20260502044043 | 49 | 269 | 7.0 | 14.0 | 0.00 | 0.01 | 0.00 | 78 | 1013.0 |
| 20260502043541 | 49 | 269 | 6.0 | 10.0 | 0.00 | 0.01 | 0.00 | 79 | 1012.8 |
| 20260502043103 | 49 | 297 | 5.0 | 9.0 | 0.00 | 0.01 | 0.00 | 80 | 1012.7 |
| 20260502042541 | 48 | 314 | 2.0 | 9.0 | 0.00 | 0.01 | 0.00 | 82 | 1012.7 |
| 20260502042042 | 48 | 258 | 1.0 | 7.0 | 0.01 | 0.01 | 0.00 | 85 | 1012.7 |
| 20260502041555 | 48 | 0 | 1.0 | 4.0 | 0.01 | 0.01 | 0.00 | 84 | 1012.6 |
| 20260502041038 | 48 | 0 | 0.0 | 4.0 | 0.01 | 0.01 | 0.00 | 85 | 1012.7 |
| 20260502040538 | 49 | 0 | 0.0 | 0.0 | 0.01 | 0.01 | 0.00 | 85 | 1012.7 |
| 20260502040045 | 49 | 0 | 0.0 | 0.0 | 0.01 | 0.01 | 0.00 | 84 | 1012.7 |
| 20260502035538 | 49 | 0 | 0.0 | 0.0 | 0.01 | 0.01 | 0.01 | 83 | 1012.7 |
| 20260502035038 | 50 | 0 | 0.0 | 0.0 | 0.01 | 0.01 | 0.01 | 81 | 1012.6 |
| 20260502034555 | 50 | 0 | 0.0 | 5.0 | 0.01 | 0.01 | 0.01 | 80 | 1012.7 |
| 20260502034039 | 50 | 0 | 0.0 | 5.0 | 0.01 | 0.01 | 0.01 | 79 | 1012.7 |
| 20260502033544 | 50 | 248 | 2.0 | 5.0 | 0.01 | 0.01 | 0.01 | 78 | 1012.6 |
| 20260502033100 | 51 | 266 | 0.0 | 7.0 | 0.01 | 0.01 | 0.01 | 77 | 1012.6 |
| 20260502032538 | 51 | 0 | 1.0 | 9.0 | 0.01 | 0.01 | 0.01 | 76 | 1012.5 |
| 20260502032038 | 51 | 300 | 3.0 | 11.0 | 0.00 | 0.00 | 0.00 | 75 | 1012.6 |
| 20260502031550 | 52 | 308 | 2.0 | 11.0 | 0.00 | 0.00 | 0.00 | 74 | 1012.7 |
| 20260502031038 | 52 | 282 | 6.0 | 12.0 | 0.00 | 0.00 | 0.00 | 72 | 1012.6 |